{"data":{"norad_id":52988,"epoch":"2026-09-19T17:04:37.924320Z","epoch_age_seconds":137873,"freshness":"FRESH","line1":"1 52988U 22076C   26262.71155005 -.00000066  00000+0  93308-5 0  9991","line2":"2 52988  53.1613 287.5965 0001271  97.0133 263.1014 15.33545332232344","mean_motion":15.33545332,"eccentricity":0.0001271,"inclination_deg":53.1613,"raan_deg":287.5965,"arg_perigee_deg":97.0133,"mean_anomaly_deg":263.1014,"bstar":9.3308e-6,"rev_number":23234,"period_min":93.900060855847,"perigee_km":464.37487950053,"apogee_km":466.11446712188,"semimajor_km":6843.3816733112,"source":"CELESTRAK","updated_at":"2026-09-20T09:00:40.138970Z"}}